Date String (YYYY-MM-DD hh:mm:ss) UTC,Instrument flags,Ambient pressure (hPa),Sample flow (lpm),Bypass flow (lpm),Sample temperature (°C),Ambient temperature (°C),ASC tube jacket temperature (°C),LED temperature (°C),Box temperature (°C),Sample RH (%),Span deviation,Mass concentration (μg/m³),Mass concentration (μg/m³),Mass concentration (μg/m³)
DateTimeUTC,F1_M11,P_M11,Q1_M11,Q2_M11,T1_M11,T2_M11,T3_M11,T4_M11,T5_M11,U1_M11,ZSPAN_M11,X0_M11,X2_M11,X1_M11
2022-06-07 06:00:00,,0823.6,5.00,0.00,30.2,29.0,00.0,39.0,32.0,17.6,0000.0,0007.66,0002.85,0001.27
2022-06-07 06:01:00,,0823.5,5.00,0.00,30.2,29.0,00.0,39.0,32.0,17.5,0000.0,0007.67,0002.85,0001.26
2022-06-07 06:02:00,,0823.5,5.00,0.00,30.2,29.0,00.0,39.0,32.0,17.4,0000.0,0008.19,0002.90,0001.25
2022-06-07 06:03:00,,0823.4,5.00,0.00,30.2,29.0,00.0,39.0,32.0,17.3,0000.0,0008.28,0002.91,0001.25
2022-06-07 06:04:00,,0823.4,5.02,0.00,30.2,29.1,00.0,39.1,32.0,17.5,0000.0,0008.61,0002.94,0001.24
2022-06-07 06:05:00,,0823.4,4.99,0.00,30.2,29.1,00.0,39.1,32.0,18.7,0000.0,0008.52,0002.89,0001.25
2022-06-07 06:06:00,,0823.4,5.00,0.00,30.2,29.1,00.0,39.1,32.0,19.6,0000.0,0008.58,0002.93,0001.25
2022-06-07 06:07:00,,0823.4,5.00,0.00,30.2,29.1,00.0,39.1,32.0,19.6,0000.0,0008.76,0002.99,0001.25
2022-06-07 06:08:00,,0823.4,5.01,0.00,30.2,29.1,00.0,39.1,32.0,19.5,0000.0,0008.76,0003.01,0001.27
2022-06-07 06:09:00,,0823.4,5.01,0.00,30.2,29.1,00.0,39.1,32.0,18.3,0000.0,0008.87,0003.07,0001.26
2022-06-07 06:10:00,,0823.4,4.99,0.00,30.2,29.1,00.0,39.1,32.0,17.6,0000.0,0008.79,0003.08,0001.24
2022-06-07 06:11:00,,0823.4,5.00,0.00,30.2,29.1,00.0,39.1,32.0,17.7,0000.0,0008.31,0003.07,0001.24
2022-06-07 06:12:00,,0823.4,5.01,0.00,30.2,29.1,00.0,39.1,32.0,17.6,0000.0,0008.38,0003.11,0001.25
2022-06-07 06:13:00,,0823.4,5.00,0.00,30.2,29.1,00.0,39.1,32.0,17.4,0000.0,0008.01,0003.12,0001.26
2022-06-07 06:14:00,,0823.4,5.01,0.00,30.2,29.1,00.0,39.1,32.0,17.4,0000.0,0007.81,0003.09,0001.26
2022-06-07 06:15:00,,0823.4,4.99,0.00,30.2,29.1,00.0,39.1,32.0,18.2,0000.0,0007.86,0003.04,0001.27
2022-06-07 06:16:00,,0823.4,4.99,0.00,30.2,29.1,00.0,39.1,32.0,19.0,0000.0,0007.93,0003.04,0001.28
2022-06-07 06:17:00,,0823.4,5.00,0.00,30.2,29.1,00.0,39.1,32.0,19.2,0000.0,0008.33,0003.00,0001.29
2022-06-07 06:18:00,,0823.4,5.00,0.00,30.2,29.1,00.0,39.1,32.0,18.6,0000.0,0008.27,0002.97,0001.29
2022-06-07 06:19:00,,0823.3,5.01,0.00,30.2,29.0,00.0,39.1,32.0,18.0,0000.0,0008.30,0002.99,0001.27
2022-06-07 06:20:00,,0823.3,5.00,0.00,30.2,29.0,00.0,39.1,32.0,17.8,0000.0,0008.24,0002.96,0001.26
2022-06-07 06:21:00,,0823.3,5.00,0.00,30.2,29.0,00.0,39.1,32.0,17.9,0000.0,0008.35,0002.94,0001.26
2022-06-07 06:22:00,,0823.3,5.01,0.00,30.2,29.0,00.0,39.1,32.0,18.0,0000.0,0008.58,0002.93,0001.26
2022-06-07 06:23:00,,0823.4,4.99,0.00,30.2,29.0,00.0,39.1,32.0,17.7,0000.0,0008.46,0002.87,0001.26
2022-06-07 06:24:00,,0823.3,4.99,0.00,30.2,29.0,00.0,39.1,32.0,18.5,0000.0,0008.43,0002.87,0001.27
2022-06-07 06:25:00,,0823.3,4.99,0.00,30.2,29.0,00.0,39.1,32.0,18.6,0000.0,0008.39,0002.86,0001.28
2022-06-07 06:26:00,,0823.3,5.01,0.00,30.2,29.0,00.0,39.1,32.0,18.6,0000.0,0007.78,0002.93,0001.28
2022-06-07 06:27:00,,0823.3,5.00,0.00,30.2,29.0,00.0,39.1,32.0,18.5,0000.0,0007.81,0002.91,0001.27
2022-06-07 06:28:00,,0823.3,5.00,0.00,30.2,29.0,00.0,39.1,32.0,17.9,0000.0,0007.28,0002.93,0001.26
2022-06-07 06:29:00,,0823.4,5.01,0.00,30.2,29.0,00.0,39.1,32.0,17.8,0000.0,0007.35,0003.03,0001.28
2022-06-07 06:30:00,,0823.4,4.99,0.00,30.2,28.9,00.0,39.1,32.0,17.6,0000.0,0007.74,0003.20,0001.31
2022-06-07 06:31:00,,0823.4,4.99,0.00,30.2,28.9,00.0,39.1,32.0,17.5,0000.0,0007.88,0003.23,0001.31
2022-06-07 06:32:00,,0823.4,5.01,0.00,30.2,29.0,00.0,39.1,32.0,17.4,0000.0,0008.17,0003.28,0001.33
2022-06-07 06:33:00,,0823.4,5.00,0.00,30.2,29.0,00.0,39.1,32.0,17.2,0000.0,0008.13,0003.30,0001.33
2022-06-07 06:34:00,,0823.5,5.00,0.00,30.2,29.0,00.0,39.1,32.0,17.3,0000.0,0008.31,0003.38,0001.35
2022-06-07 06:35:00,,0823.5,5.00,0.00,30.2,29.0,00.0,39.1,32.0,17.3,0000.0,0008.38,0003.39,0001.34
2022-06-07 06:36:00,,0823.6,5.00,0.00,30.2,29.0,00.0,39.1,32.0,17.4,0000.0,0008.42,0003.40,0001.34
2022-06-07 06:37:00,,0823.6,5.00,0.00,30.2,29.0,00.0,39.1,32.0,17.6,0000.0,0008.55,0003.44,0001.34
2022-06-07 06:38:00,,0823.6,5.01,0.00,30.2,29.0,00.0,39.1,32.0,17.4,0000.0,0008.56,0003.47,0001.35
2022-06-07 06:39:00,,0823.6,4.99,0.00,30.2,29.0,00.0,39.1,32.0,17.5,0000.0,0008.44,0003.45,0001.34
2022-06-07 06:40:00,,0823.6,5.00,0.00,30.2,29.0,00.0,39.1,32.0,17.3,0000.0,0008.36,0003.43,0001.33
2022-06-07 06:41:00,,0823.6,5.01,0.00,30.2,29.0,00.0,39.1,32.0,17.3,0000.0,0008.05,0003.33,0001.32
2022-06-07 06:42:00,,0823.6,5.00,0.00,30.2,29.0,00.0,39.1,32.0,17.4,0000.0,0008.00,0003.31,0001.32
2022-06-07 06:43:00,,0823.7,4.99,0.00,30.2,29.0,00.0,39.1,32.0,17.9,0000.0,0007.75,0003.28,0001.31
2022-06-07 06:44:00,,0823.7,4.99,0.00,30.2,29.0,00.0,39.1,32.0,17.6,0000.0,0007.48,0003.25,0001.31
2022-06-07 06:45:00,,0823.7,5.02,0.00,30.2,29.1,00.0,39.1,32.0,17.1,0000.0,0007.46,0003.22,0001.30
2022-06-07 06:46:00,,0823.9,5.01,0.00,30.2,29.1,00.0,39.1,32.1,17.0,0000.0,0007.28,0003.18,0001.29
2022-06-07 06:47:00,,0824.0,4.98,0.00,30.2,29.1,00.0,39.1,32.1,18.0,0000.0,0007.25,0003.16,0001.29
2022-06-07 06:48:00,,0824.0,5.01,0.00,30.2,29.1,00.0,39.1,32.1,19.6,0000.0,0007.61,0003.14,0001.30
2022-06-07 06:49:00,,0824.1,5.00,0.00,30.2,29.1,00.0,39.1,32.1,19.6,0000.0,0008.88,0003.19,0001.31
2022-06-07 06:50:00,,0824.1,5.00,0.00,30.2,29.1,00.0,39.1,32.0,19.7,0000.0,0010.55,0003.31,0001.36
2022-06-07 06:51:00,,0824.1,5.01,0.00,30.2,29.2,00.0,39.1,32.1,19.5,0000.0,0011.70,0003.39,0001.39
2022-06-07 06:52:00,,0824.1,5.00,0.00,30.2,29.2,00.0,39.1,32.1,19.9,0000.0,0012.20,0003.45,0001.40
2022-06-07 06:53:00,,0824.1,5.00,0.00,30.2,29.2,00.0,39.1,32.1,20.1,0000.0,0012.86,0003.55,0001.41
2022-06-07 06:54:00,,0824.1,5.01,0.00,30.2,29.2,00.0,39.1,32.1,20.1,0000.0,0012.98,0003.57,0001.43
2022-06-07 06:55:00,,0824.1,4.99,0.00,30.2,29.2,00.0,39.1,32.1,20.0,0000.0,0012.99,0003.59,0001.46
2022-06-07 06:56:00,,0824.1,4.99,0.00,30.2,29.2,00.0,39.1,32.1,20.3,0000.0,0012.97,0003.60,0001.48
2022-06-07 06:57:00,,0824.1,5.01,0.00,30.2,29.2,00.0,39.1,32.1,20.6,0000.0,0013.27,0003.67,0001.51
2022-06-07 06:58:00,,0824.1,4.99,0.00,30.3,29.2,00.0,39.1,32.1,20.7,0000.0,0013.52,0003.77,0001.52
2022-06-07 06:59:00,,0824.1,4.99,0.00,30.3,29.2,00.0,39.1,32.1,20.9,0000.0,0013.27,0003.77,0001.54
